When you browse on this site, cookies collect data to enhance your experience and personalize the content and advertising you see.
Visit our Privacy Policy to learn more. By continuing to use the site, you agree to this use of cookies and data.
  • In Latvia
  • List of Countries
  • For 7 days
  • Water Temperature
  • Weather Map
  • Weather Widgets
  • user-avatar
    Login

    Hourly Weather Ayshabibi

    Today, 29 March, Sunday

    Time Temperature Precipitation Wind Pressure Humidity
    00:00 +6°C° 0 mm 1 mps 705 mmHg 42%
    01:00 +6°C° 0 mm 1 mps 705 mmHg 42%
    02:00 +5°C° 0 mm 1 mps 705 mmHg 43%
    03:00 +4°C° 0 mm 1 mps 705 mmHg 46%
    04:00 +4°C° 0 mm 1 mps 704 mmHg 50%
    05:00 +3°C° 0 mm 1 mps 704 mmHg 55%
    06:00 +4°C° 0 mm 1 mps 704 mmHg 53%
    07:00 +5°C° 0 mm 1 mps 704 mmHg 51%
    08:00 +5°C° 0 mm 2 mps 704 mmHg 49%
    09:00 +7°C° 0 mm 2 mps 704 mmHg 44%
    10:00 +9°C° 0 mm 3 mps 704 mmHg 39%
    11:00 +11°C° 0 mm 3 mps 704 mmHg 34%
    12:00 +12°C° 0 mm 4 mps 704 mmHg 33%
    13:00 +13°C° 0 mm 4 mps 704 mmHg 32%
    14:00 +14°C° 0 mm 5 mps 703 mmHg 30%
    15:00 +14°C° 0 mm 5 mps 703 mmHg 32%
    16:00 +13°C° 0 mm 6 mps 703 mmHg 33%
    17:00 +13°C° 0 mm 6 mps 703 mmHg 34%
    18:00 +10°C° 0 mm 5 mps 702 mmHg 38%
    19:00 +10°C° 0 mm 4 mps 702 mmHg 42%
    20:00 +8°C° 0 mm 3 mps 702 mmHg 46%
    21:00 +7°C° 0 mm 3 mps 702 mmHg 50%
    22:00 +6°C° 0 mm 2 mps 702 mmHg 53%
    23:00 +6°C° 0 mm 2 mps 702 mmHg 56%

    Tomorrow, 30 March, Monday

    Time Temperature Precipitation Wind Pressure Humidity
    00:00 +5°C° 0 mm 2 mps 701 mmHg 60%
    01:00 +4°C° 0 mm 2 mps 701 mmHg 63%
    02:00 +5°C° 0 mm 1 mps 700 mmHg 67%
    03:00 +4°C° 0 mm 1 mps 700 mmHg 69%
    04:00 +4°C° 0 mm 1 mps 700 mmHg 71%
    05:00 +3°C° 0 mm 1 mps 700 mmHg 72%
    06:00 +4°C° 0 mm 1 mps 700 mmHg 68%
    07:00 +6°C° 0 mm 1 mps 700 mmHg 63%
    08:00 +7°C° 0 mm 1 mps 700 mmHg 58%
    09:00 +9°C° 0 mm 1 mps 700 mmHg 53%
    10:00 +10°C° 0 mm 2 mps 700 mmHg 47%
    11:00 +13°C° 0 mm 2 mps 700 mmHg 41%
    12:00 +13°C° 0 mm 3 mps 699 mmHg 38%
    13:00 +16°C° 0 mm 3 mps 699 mmHg 34%
    14:00 +17°C° 0 mm 4 mps 699 mmHg 31%
    15:00 +17°C° 0 mm 4 mps 699 mmHg 31%
    16:00 +17°C° 0 mm 4 mps 699 mmHg 31%
    17:00 +17°C° 0 mm 4 mps 699 mmHg 32%
    18:00 +14°C° 0 mm 4 mps 699 mmHg 37%
    19:00 +11°C° 0 mm 3 mps 698 mmHg 42%
    20:00 +9°C° 0 mm 2 mps 698 mmHg 47%
    21:00 +10°C° 0 mm 1 mps 698 mmHg 51%
    22:00 +9°C° 0 mm 1 mps 697 mmHg 54%
    23:00 +8°C° 0 mm 1 mps 697 mmHg 57%

    Day after tomorrow, 31 March, Tuesday

    Time Temperature Precipitation Wind Pressure Humidity
    00:00 +7°C° 0 mm 1 mps 696 mmHg 59%
    01:00 +7°C° 0 mm 1 mps 696 mmHg 61%
    02:00 +6°C° 0 mm 1 mps 695 mmHg 63%
    03:00 +6°C° 0 mm 1 mps 695 mmHg 65%
    04:00 +5°C° 0 mm 1 mps 694 mmHg 67%
    05:00 +5°C° 0 mm 1 mps 694 mmHg 69%
    06:00 +6°C° 0 mm 1 mps 694 mmHg 65%
    07:00 +7°C° 0 mm 1 mps 694 mmHg 60%
    08:00 +9°C° 0 mm 1 mps 694 mmHg 56%
    09:00 +11°C° 0 mm 1 mps 694 mmHg 50%
    10:00 +13°C° 0 mm 1 mps 694 mmHg 44%
    11:00 +15°C° 0 mm 2 mps 695 mmHg 38%
    12:00 +16°C° 0 mm 2 mps 695 mmHg 36%
    13:00 +17°C° 0 mm 2 mps 695 mmHg 33%
    14:00 +19°C° 0 mm 2 mps 695 mmHg 30%
    15:00 +19°C° 0 mm 2 mps 695 mmHg 31%
    16:00 +19°C° 0 mm 2 mps 695 mmHg 32%
    17:00 +19°C° 0 mm 2 mps 695 mmHg 32%
    18:00 +17°C° 0 mm 2 mps 695 mmHg 36%
    19:00 +16°C° 0 mm 1 mps 695 mmHg 39%
    20:00 +14°C° 0 mm 1 mps 695 mmHg 42%
    21:00 +14°C° 0 mm 2 mps 696 mmHg 44%
    22:00 +14°C° 0 mm 2 mps 696 mmHg 46%
    23:00 +14°C° 0 mm 2 mps 696 mmHg 48%

    1 April, Wednesday

    Time Temperature Precipitation Wind Pressure Humidity
    00:00 +13°C° 0 mm 2 mps 696 mmHg 54%
    01:00 +13°C° 0 mm 2 mps 696 mmHg 60%
    02:00 +13°C° 0 mm 2 mps 696 mmHg 66%
    03:00 +12°C° 0.2 mm 3 mps 697 mmHg 68%
    04:00 +12°C° 0.2 mm 3 mps 697 mmHg 70%
    05:00 +12°C° 0.2 mm 4 mps 697 mmHg 72%
    06:00 +13°C° 0 mm 4 mps 698 mmHg 66%
    07:00 +14°C° 0 mm 3 mps 698 mmHg 60%
    08:00 +16°C° 0 mm 3 mps 698 mmHg 53%
    09:00 +17°C° 0 mm 3 mps 699 mmHg 50%
    10:00 +18°C° 0 mm 3 mps 699 mmHg 47%
    11:00 +19°C° 0 mm 3 mps 699 mmHg 44%
    12:00 +18°C° 0.1 mm 4 mps 699 mmHg 47%
    13:00 +17°C° 0.1 mm 5 mps 699 mmHg 50%
    14:00 +17°C° 0.1 mm 6 mps 699 mmHg 53%
    15:00 +15°C° 0.8 mm 7 mps 699 mmHg 59%
    16:00 +14°C° 0.8 mm 7 mps 699 mmHg 64%
    17:00 +12°C° 0.8 mm 8 mps 699 mmHg 70%
    18:00 +11°C° 0.4 mm 7 mps 699 mmHg 71%
    19:00 +11°C° 0.4 mm 6 mps 700 mmHg 72%
    20:00 +10°C° 0.4 mm 5 mps 701 mmHg 73%
    21:00 +11°C° 0 mm 4 mps 701 mmHg 72%
    22:00 +11°C° 0 mm 3 mps 701 mmHg 71%
    23:00 +12°C° 0 mm 2 mps 701 mmHg 70%

    2 April, Thursday

    Time Temperature Precipitation Wind Pressure Humidity
    00:00 +10°C° 0 mm 2 mps 702 mmHg 72%
    01:00 +10°C° 0 mm 2 mps 702 mmHg 73%
    02:00 +11°C° 0 mm 1 mps 702 mmHg 75%
    03:00 +11°C° 0.1 mm 1 mps 702 mmHg 76%
    04:00 +10°C° 0.1 mm 1 mps 702 mmHg 78%
    05:00 +10°C° 0.1 mm 1 mps 703 mmHg 79%
    06:00 +10°C° 0.2 mm 2 mps 703 mmHg 77%
    07:00 +10°C° 0.2 mm 2 mps 703 mmHg 74%
    08:00 +10°C° 0.2 mm 3 mps 704 mmHg 72%
    09:00 +12°C° 0 mm 3 mps 704 mmHg 66%
    10:00 +13°C° 0 mm 3 mps 704 mmHg 59%
    11:00 +14°C° 0 mm 3 mps 704 mmHg 53%
    12:00 +14°C° 0 mm 3 mps 704 mmHg 51%
    13:00 +16°C° 0 mm 2 mps 704 mmHg 50%
    14:00 +16°C° 0 mm 2 mps 704 mmHg 49%
    15:00 +15°C° 0.1 mm 2 mps 704 mmHg 51%
    16:00 +15°C° 0.1 mm 2 mps 704 mmHg 53%
    17:00 +14°C° 0.1 mm 3 mps 703 mmHg 56%
    18:00 +14°C° 0 mm 2 mps 703 mmHg 60%
    19:00 +12°C° 0 mm 2 mps 704 mmHg 65%
    20:00 +10°C° 0 mm 2 mps 704 mmHg 69%
    21:00 +10°C° 0 mm 2 mps 703 mmHg 71%
    22:00 +10°C° 0 mm 1 mps 703 mmHg 73%
    23:00 +9°C° 0 mm 1 mps 703 mmHg 76%

    3 April, Friday

    Time Temperature Precipitation Wind Pressure Humidity
    00:00 +9°C° 0 mm 1 mps 703 mmHg 76%
    01:00 +8°C° 0 mm 1 mps 702 mmHg 76%
    02:00 +8°C° 0 mm 1 mps 702 mmHg 77%
    03:00 +8°C° 0 mm 1 mps 702 mmHg 75%
    04:00 +8°C° 0 mm 1 mps 702 mmHg 74%
    05:00 +7°C° 0 mm 1 mps 702 mmHg 72%
    06:00 +9°C° 0 mm 1 mps 702 mmHg 64%
    07:00 +11°C° 0 mm 1 mps 702 mmHg 55%
    08:00 +12°C° 0 mm 0 mps 702 mmHg 46%
    09:00 +15°C° 0 mm 1 mps 702 mmHg 41%
    10:00 +18°C° 0 mm 1 mps 702 mmHg 35%
    11:00 +19°C° 0 mm 1 mps 702 mmHg 29%
    12:00 +20°C° 0 mm 2 mps 702 mmHg 27%
    13:00 +21°C° 0 mm 2 mps 702 mmHg 25%
    14:00 +22°C° 0 mm 3 mps 702 mmHg 23%
    15:00 +22°C° 0 mm 3 mps 702 mmHg 24%
    16:00 +22°C° 0 mm 3 mps 702 mmHg 25%
    17:00 +21°C° 0 mm 3 mps 701 mmHg 26%
    18:00 +19°C° 0 mm 2 mps 701 mmHg 32%
    19:00 +17°C° 0 mm 2 mps 701 mmHg 38%
    20:00 +15°C° 0 mm 1 mps 701 mmHg 43%
    21:00 +15°C° 0 mm 1 mps 701 mmHg 42%
    22:00 +15°C° 0 mm 2 mps 701 mmHg 40%
    23:00 +15°C° 0 mm 2 mps 701 mmHg 38%
    Show more